CYGFM07

Last updated on Mon Feb 16 2026 00:02:22 GMT+0000 (Coordinated Universal Time)

1 41890U 16078G 26046.12723104 .00023149 00000+0 35268-3 0 9997 2 41890 34.9471 318.2269 0004854 107.6985 252.4269 15.53497634509966
UTC large
Height (km)
Speed (km/s)
/
Latitude / Longitude
Inclination (degrees)
Orbital Period (minutes)
Azimuth
Elevation
Range (km)
Doppler Factor

Next 0 passes for location: London (51.5072 / 0.1276)

Sorry there are no passes over London.